Regional Weather Roundup
Issued by NWS

Home | Current Version | Previous Version | Graphics & Text | Print | Product List | Glossary On
Versions: 1 2 3 4 5 6 7 8 9 10 11 12 13 14 15 16 17 18 19 20 21 22 23 24 25 26 27
000
ASUS45 KPSR 252310
RWRAZ

ARIZONA HOURLY REGIONAL WEATHER ROUNDUP
NATIONAL WEATHER SERVICE PHOENIX AZ
400 PM MST TUE JUL 25 2017

NOTE: FAIR INDICATES FEW OR NO CLOUDS BELOW 12,000 FEET WITH NO
SIGNIFICANT WEATHER AND/OR OBSTRUCTIONS TO VISIBILITY.

AZZ001>003-036-260000-
NORTHWEST ARIZONA

CITY           SKY/WX    TMP DP  RH WIND       PRES   REMARKS
BULLHEAD CITY  CLOUDY    82  70  65 N17       29.95F
KINGMAN        RAIN      69  65  86 E9        30.14F FOG
$$

AZZ004>008-015-016-018-260000-
NORTH CENTRAL ARIZONA

CITY           SKY/WX    TMP DP  RH WIND       PRES   REMARKS
GRAND CANYON   CLOUDY    64  60  87 SW7       30.32F
WILLIAMS       CLOUDY    63  57  82 SE3       30.35F
PRESCOTT       CLOUDY    68  63  84 N14       30.24R
FLAGSTAFF      CLOUDY    62  60  93 VRB5      30.36S
PAYSON         MOSUNNY   79  61  53 W12       30.24S
PAGE           CLOUDY    78  66  66 VRB5      30.11F
$$

AZZ009>014-017-260000-
NORTHEAST ARIZONA

CITY           SKY/WX    TMP DP  RH WIND       PRES   REMARKS
WINSLOW        MOSUNNY   87  55  33 SW13G21   30.15S
SAINT JOHNS    MOSUNNY   82  59  45 CALM      30.21S
WINDOW ROCK    PTSUNNY   80  55  42 W12G20    30.27F
SHOW LOW       MOSUNNY   77  54  44 SW14      30.29F
$$

AZZ540-542>544-546-548-260000-
GREATER PHOENIX AREA

CITY           SKY/WX    TMP DP  RH WIND       PRES   REMARKS
PHOENIX        PTSUNNY   99  66  33 W12G21    29.88F HX 103
BUCKEYE        SUNNY     99  59  26 SW6       29.90F
GLENDALE       PTSUNNY  100  61  27 S9        29.91F HX 101
LUKE AFB       SUNNY     99  60  27 SW10      29.89F
DEER VALLEY    MOSUNNY   99  59  26 W13G28    29.92S
SCOTTSDALE     MOSUNNY   97  63  32 W3        29.94S
MESA-FALCON    PTSUNNY   99  66  34 SW8       29.92F HX 102
MESA-GATEWAY   PTSUNNY   99  61  28 SW9       29.93S
CHANDLER       PTSUNNY  100  61  27 SW8       29.90F HX 101
$$

AZZ539-553-260000-
SOUTHWEST MARICOPA COUNTY AND PINAL COUNTY

CITY           SKY/WX    TMP DP  RH WIND       PRES   REMARKS
CASA GRANDE    MOSUNNY   98  62  30 CALM      29.92F
GILA BEND      SUNNY    102  52  18 SW5       29.85F HX 100
$$

AZZ503-504-507>509-260000-
SOUTHEAST ARIZONA

CITY           SKY/WX    TMP DP  RH WIND       PRES   REMARKS
TUCSON         MOSUNNY   93  62  35 W8        30.03S
DAVIS-MONTHAN  MOSUNNY   97  62  31 SW10      30.01F
NOGALES        MOSUNNY   90  60  36 W9        30.11F
SIERRA VISTA   PTSUNNY   86  56  35 CALM      30.17F
DOUGLAS        PTSUNNY   87  53  31 NW5       30.11F
SAFFORD        PTSUNNY   92  64  39 W13       30.02F
$$

AZZ532-260000-
SOUTHWEST ARIZONA

CITY           SKY/WX    TMP DP  RH WIND       PRES   REMARKS
YUMA           PTSUNNY  104  50  16 S10       29.81F HX 101
$$

CAZ041-043-047-048-061-525>527-560>570-260000-
SOUTHERN CALIFORNIA

CITY           SKY/WX    TMP DP  RH WIND       PRES   REMARKS
DOWNTOWN L.A.  SUNNY     79  63  57 VRB3      29.95F
L.A. AIRPORT   MOSUNNY   74  64  71 W16G23    29.96F
SAN DIEGO      PTSUNNY   75  63  66 W12       29.99S
BURBANK        SUNNY     84  58  40 S12       29.94F
ONTARIO        MOSUNNY   89  60  37 W14G22    29.94F
RIVERSIDE      SUNNY     89  62  40 W13G22    29.93F
PALM SPRINGS   PTSUNNY  104  58  21 CALM      29.84F HX 104
EL CENTRO NAS  MOSUNNY  104  52  17 E3        29.80F HX 101
IMPERIAL       MOSUNNY  102  63  27 W8        29.78F HX 104
BLYTHE         MOSUNNY  104  54  19 VRB3      29.83F HX 102
NEEDLES        CLOUDY    92  69  47 N14       29.94F
$$

NVZ020-UTZ003-260000-
SOUTHERN NEVADA-UTAH

CITY           SKY/WX    TMP DP  RH WIND       PRES   REMARKS
LAS VEGAS      CLOUDY    83  63  50 NE7       30.03F
SALT LAKE CITY CLOUDY    84  56  38 CALM      30.07F
$$

NMZ009-TXZ055-260000-
NEW MEXICO-WEST TEXAS

CITY           SKY/WX    TMP DP  RH WIND       PRES   REMARKS
ALBUQUERQUE    CLOUDY    87  56  34 NW9       30.17S
EL PASO        MOSUNNY   95  59  30 W7        30.05F
$$


........................KEY........................
SKY/WX - SKY CONDITION/WEATHER
TMP    - TEMPERATURE IN FAHRENHEIT
DP     - DEW POINT IN FAHRENHEIT
RH     - RELATIVE HUMIDITY IN PERCENT
WIND   - DIRECTION AND SPEED IN MILES PER HOUR (MPH)
VRB    - VARIABLE WIND DIRECTION
PRES   - MEAN SEA LEVEL PRESSURE IN INCHES OF MERCURY
         F - FALLING PRESSURE   R - RISING PRESSURE
         S - STEADY PRESSURE
VSB    - VISIBILITY IN MILES
HX     - HEAT INDEX IN FAHRENHEIT
WCI    - WIND CHILL INDEX IN FAHRENHEIT
TC     - TEMPERATURE IN CELSIUS WHICH IS ALSO KNOWN AS
         TEMPERATURE IN CENTIGRADE
AFB    - AIR FORCE BASE
         LUKE AFB IS LUKE AIR FORCE BASE
         DAVIS-MONTHAN IS DAVIS-MONTHAN AIR FORCE BASE
NAS    - NAVAL AIR STATION
         EL CENTRO NAS IS EL CENTRO NAVAL AIR STATION
N/A    - NOT AVAILABLE





USA.gov is the U.S. government's official web portal to all federal, state and local government web resources and services.